Belleville, IL

4:59 AM CDT on April 25, 2018 (GMT -0500)
Scott Air Force Base-Midamerica

Weather History for KBLV - November, 2012

Change the Weather History Date:

Friday, November 23, 2012

  Actual Average Record
Temperature  
Mean Temperature 43 °F -  
Max Temperature 57 °F 51 °F 69 °F (1958)
Min Temperature 28 °F 34 °F 11 °F (1950)
Degree Days  
Heating Degree Days 22    
Moisture  
Dew Point 30 °F    
Average Humidity 64    
Maximum Humidity 94    
Minimum Humidity 40    
Precipitation  
Precipitation 0.00 in - - ()
Sea Level Pressure  
Sea Level Pressure 30.24 in    
Wind  
Wind Speed 13 mph (WNW)    
Max Wind Speed 22 mph    
Max Gust Speed 29 mph    
Visibility 10 miles    
Events      
Averages and records for this station are not official NWS values.
T = Trace of Precipitation, MM = Missing Value Source: NWS Daily Summary

Daily Weather History Graph

Daily Weather History Graph

Search for Another Location

Airport or City:

Astronomy

Nov. 23, 2012 Rise Set
Actual Time 6:50 AM CST 4:41 PM CST
Civil Twilight 6:21 AM CST 5:10 PM CST
Nautical Twilight 5:48 AM CST 5:42 PM CST
Astronomical Twilight 5:17 AM CST 6:14 PM CST
Moon 1:53 PM CST (11/23) 2:12 AM CST (11/23)
Length of Visible Light 10h 48m
Length of Day
9h 50m
Waxing Gibbous, 80% of the Moon is Illuminated
Nov 23
Waxing Gibbous
Nov 28
Full
Dec 6
Last Quarter
Dec 13
New
Dec 19
First Quarter

Hourly Weather History & Observations

Time (CST) Temp. Windchill Dew Point Humidity Pressure Visibility Wind Dir Wind Speed Gust Speed Precip Events Conditions
12:07 AM 57.2 °F - 55.4 °F 94% 30.06 in 10.0 mi West 11.5 mph - N/A   Overcast
12:26 AM 57.2 °F - 53.6 °F 88% 30.07 in 10.0 mi NW 15.0 mph 21.9 mph N/A   Overcast
12:55 AM 53.6 °F - 45.5 °F 74% 30.09 in 10.0 mi NW 16.1 mph 21.9 mph N/A   Mostly Cloudy
1:55 AM 49.6 °F - 40.5 °F 71% 30.12 in 10.0 mi NW 11.5 mph 19.6 mph N/A   Clear
2:55 AM 46.6 °F - 39.0 °F 75% 30.14 in 10.0 mi NW 15.0 mph - N/A   Partly Cloudy
3:55 AM 44.4 °F 37.9 °F 36.3 °F 73% 30.15 in 10.0 mi NW 13.8 mph - N/A   Clear
4:55 AM 41.9 °F 36.3 °F 36.9 °F 82% 30.17 in 10.0 mi West 9.2 mph - N/A   Clear
5:55 AM 41.5 °F 35.4 °F 34.2 °F 75% 30.18 in 10.0 mi West 10.4 mph - N/A   Clear
6:55 AM 39.9 °F 34.5 °F 32.7 °F 75% 30.19 in 10.0 mi West 8.1 mph - N/A   Clear
7:55 AM 42.4 °F 37.0 °F 34.3 °F 73% 30.21 in 10.0 mi West 9.2 mph - N/A   Scattered Clouds
8:55 AM 43.3 °F 36.5 °F 34.5 °F 71% 30.23 in 10.0 mi NW 13.8 mph 24.2 mph N/A   Mostly Cloudy
9:55 AM 43.5 °F 35.8 °F 32.5 °F 65% 30.25 in 10.0 mi WNW 17.3 mph 27.6 mph N/A   Overcast
10:55 AM 44.6 °F 36.4 °F 28.4 °F 53% 30.27 in 10.0 mi NW 20.7 mph 26.5 mph N/A   Scattered Clouds
11:55 AM 45.1 °F 37.3 °F 26.2 °F 48% 30.26 in 10.0 mi West 19.6 mph 27.6 mph N/A   Clear
12:55 PM 45.5 °F 37.3 °F 25.7 °F 46% 30.25 in 10.0 mi NW 21.9 mph 26.5 mph N/A   Clear
1:55 PM 45.1 °F 37.9 °F 23.2 °F 42% 30.26 in 10.0 mi WNW 17.3 mph 28.8 mph N/A   Clear
2:55 PM 43.2 °F 35.9 °F 20.1 °F 40% 30.27 in 10.0 mi NW 15.0 mph 26.5 mph N/A   Clear
3:55 PM 41.0 °F 32.5 °F 20.5 °F 44% 30.28 in 10.0 mi NW 17.3 mph 24.2 mph N/A   Clear
4:55 PM 37.8 °F 28.6 °F 20.5 °F 50% 30.30 in 10.0 mi WNW 16.1 mph - N/A   Clear
5:55 PM 35.6 °F 27.1 °F 20.5 °F 54% 30.32 in 10.0 mi NW 12.7 mph - N/A   Clear
6:55 PM 35.1 °F 25.5 °F 20.3 °F 55% 30.34 in 10.0 mi NW 15.0 mph - N/A   Clear
7:55 PM 32.5 °F 23.7 °F 20.1 °F 60% 30.35 in 10.0 mi NW 11.5 mph - N/A   Clear
8:55 PM 31.8 °F 23.3 °F 20.3 °F 62% 30.36 in 10.0 mi NW 10.4 mph - N/A   Clear
9:55 PM 30.4 °F 22.2 °F 19.6 °F 64% 30.36 in 10.0 mi NW 9.2 mph - N/A   Clear
10:55 PM 29.5 °F 20.4 °F 18.0 °F 62% 30.36 in 10.0 mi NW 10.4 mph - N/A   Clear
11:55 PM 28.0 °F 20.0 °F 18.3 °F 67% 30.35 in 10.0 mi NW 8.1 mph - N/A   Clear